Вернуться в каталог

DMSP 5D-2 F13 DEB

АктивенSSO
NORAD 40601·DEBRIS·🇺🇸 United States

Запущен Mar 24, 1995 с Vandenberg Space Force Base

Loading…

Ближайшие Пролёты (ближайшие 24 часа)

TLE

СвежийSource: Space-Track

Эпоха: Sep 12, 2026, 14:25 UTC

1 40601U 95015EY  26255.60087128  .00003804  00000-0  10376-2 0  9997
2 40601  98.6461 307.2347 0006584 295.8854  64.1659 14.47938285592915

Отслеживайте DMSP 5D-2 F13 DEB в реальном времени с AllMySat

Download on the App Store